SCP
0 0 0 0 0 0 0 0 0 0 0 0 0 0 0 0 0 0 0 0 0 0 0 0 0 0 0 0 0 0 0 0 0 0 0 0 0 0 0 0 0 0 0 0 0 0 0 0 0 0 0 0 0 -0
0 0 0 0 0 0 0 0 0 0 0 0 0 0 0 0 0 0 0 0 0 0 0 0 0 0 -0 0 0 0 0 0 0 0 0 0 0 0 0 0 0 0 0 0 0 0 0 0 0 0 0 -0 0 0
0 0 0 0 0 0 0 0 0 0 0 0 0 0 0 0 0 0 0 0 0 0 0 0 0 0 0 0 0 0 0 0 0 0 0 0 0 0 0 0 0 0 0 0 0 0 0 0 0 0 0 -0 0 0
0 0 0 0 0 0 0 0 0 0 0 0 0 0 0 0 0 0 0 0 0 0 0 0 0 -0 0 0 0 0 0 0 -0 0 0 0 0 0 0 0 0 0 0 0 0 0 0 0 0 0 0 0 0 0
0 0 0 0 0 0 0 0 0 0 0 0 0 0 0 0 0 0 0 0 0 0 0 0 -0 -0 0 0 0 0 0 0 0 0 0 0 0 0 0 0 0 0 0 0 0 0 0 0 0 0 0 -0 -0 -0
0 0 0 0 0 0 0 0 0 0 0 0 0 0 0 0 0 0 0 0 0 0 0 0 0 -0 0 0 0 0 0 0 0 0 0 0 0 0 0 0 0 0 0 0 0 0 0 0 0 0 -0 -0 -0 -0
0 0 0 0 0 0 0 0 0 0 0 0 0 0 0 0 0 0 0 0 0 0 0 0 0 0 0 0 0 0 0 0 -0 0 0 0 0 0 0 0 0 -0 0 0 0 0 0 0 0 -0 -0 0 -0 0
0 0 0 0 0 0 0 0 0 0 0 0 0 0 0 0 0 0 0 0 0 0 0 0 0 0 0 0 0 0 0 0 -0 -0 0 0 0 0 0 0 0 0 0 0 0 0 0 0 0 0 0 0 0 0
0 0 0 0 0 0 0 0 0 0 0 0 0 0 0 0 0 0 0 0 0 0 0 0 0 0 0 0 0 0 0 0 0 -0 -0 0 0 0 -0 0 0 0 0 0 0 0 0 0 0 0 -0 -0 0 -0
0 0 0 0 0 0 0 0 0 0 0 0 0 0 0 0 0 0 0 0 0 0 0 0 0 0 0 0 0 0 0 -0 -0 -0 -0 0 0 0 -0 0 0 0 0 0 -0 0 0 0 0 0 -0 0 -0 -0
0 0 0 0 0 0 0 0 0 0 0 0 0 0 0 0 0 0 0 0 0 0 0 0 0 0 0 0 0 -0 -0 -0 -0 0 0 0 -0 -0 -0 -0 0 0 0 0 0 0 0 0 0 -0 -0 -0 0 0
0 0 0 0 0 0 0 0 0 0 0 0 0 0 0 0 0 0 0 0 0 0 0 0 0 0 0 -0 -0 -0 -0 -0 -0 -0 0 0 -0 -0 -0 -0 0 0 0 0 -0 0 0 0 0 0 0 0 0 0
0 0 0 0 0 0 0 0 0 0 0 0 0 0 0 0 0 0 0 0 0 0 0 0 0 0 -0 -0 -0 -0 -0 -0 -0 -0 0 0 -0 -0 -0 -0 -0 0 0 0 -0 -0 -0 -0 0 -0 -0 0 0 0
0 0 0 0 0 0 -0 -0 0 0 0 0 0 0 0 0 0 0 0 0 0 0 0 0 0 0 -0 -0 -0 -0 -0 -0 -0 -0 -0 -0 -0 -0 -0 -0 0 -0 0 0 -0 -0 -0 0 0 -0 0 0 0 0
0 0 0 0 0 -0 -0 0 0 0 0 0 0 0 0 0 0 0 0 0 0 0 0 0 -0 -0 -0 -0 -0 -0 -0 -0 -0 -0 0 -0 -0 -0 -0 -0 -0 -0 0 0 -0 -0 0 0 0 0 -0 0 0 0
0 0 0 0 -0 -0 -0 0 0 0 0 0 0 0 0 0 0 0 0 0 0 0 0 -0 0 0 -0 0 0 -0 -0 -0 -0 -0 0 -0 -0 -0 -0 -0 -0 0 0 -0 -0 -0 0 0 0 0 -0 0 0 0
0 0 0 -0 -0 -0 -0 0 0 0 0 0 0 0 0 0 0 0 0 0 0 0 0 0 0 0 0 0 0 -0 -0 -0 -0 -0 0 0 -0 -0 -0 -0 -0 -0 0 0 -0 -0 -0 0 0 0 -0 -0 -0 -0
0 0 -0 -0 -0 0 0 0 0 0 0 0 0 0 0 0 0 0 0 0 0 0 0 0 0 0 0 0 0 0 0 -0 -0 -0 0 0 0 0 -0 -0 -0 -0 -0 -0 -0 -0 -0 0 0 0 0 0 -0 -0
0 -0 -0 -0 0 0 0 0 0 0 0 0 0 0 0 0 0 0 0 0 0 0 0 0 0 0 0 0 0 0 0 0 0 0 0 0 0 0 0 -0 -0 -0 -0 -0 0 0 -0 -0 -0 0 0 -0 -0 0
-0 -0 -0 -0 0 0 0 0 0 0 0 0 0 0 0 0 0 0 0 0 0 0 0 0 0 0 0 0 0 0 0 0 0 0 0 0 0 0 0 0 0 -0 -0 -0 0 0 0 -0 -0 0 -0 -0 -0 -0
-0 -0 -0 0 0 0 0 0 0 0 0 0 0 0 0 0 0 0 0 0 0 0 0 0 0 0 0 0 0 0 0 0 0 0 0 0 0 0 0 0 0 0 -0 -0 -0 -0 -0 -0 -0 0 0 -0 -0 -0
0 0 0 0 0 0 0 0 0 0 0 0 0 0 0 0 0 0 0 0 0 0 0 0 0 0 0 0 0 0 0 0 0 0 0 0 0 0 0 0 0 0 0 0 0 -0 -0 -0 -0 0 0 -0 -0 -0
0 0 0 0 0 0 0 0 0 0 0 0 0 0 0 0 0 0 0 0 0 0 0 0 0 0 0 0 0 0 0 0 0 0 0 0 0 0 0 0 0 0 0 0 0 0 0 0 -0 -0 0 0 0 0
0 0 0 0 0 0 0 0 0 0 0 0 0 0 0 0 0 0 0 0 0 0 0 0 0 0 0 0 0 0 0 -0 0 0 0 0 0 0 0 0 0 0 0 0 0 0 0 0 0 -0 -0 -0 0 0
0 0 0 0 0 0 0 0 0 0 0 0 0 0 0 0 0 0 0 0 0 0 0 0 0 0 0 0 0 0 0 -0 0 0 0 0 -0 0 0 0 0 0 0 0 0 0 0 0 0 0 0 -0 -0 0
0 0 0 0 0 0 0 0 0 0 0 0 0 0 0 0 0 0 0 0 0 0 0 0 0 0 0 0 0 0 0 0 0 0 0 0 0 0 0 0 0 0 0 0 0 0 0 0 0 0 0 -0 -0 -0
0 0 0 0 0 0 0 0 0 0 0 0 0 0 0 0 0 0 0 0 0 0 0 0 0 0 0 0 0 0 0 0 0 0 0 0 0 0 0 0 0 0 0 0 0 0 0 0 0 0 0 0 0 0
0 0 0 0 0 0 0 0 0 0 0 0 0 0 0 0 0 0 0 0 0 0 0 0 0 0 0 0 0 0 0 0 0 0 0 0 0 0 0 0 0 0 0 0 0 0 0 0 0 0 0 0 0 0
0 0 0 0 0 0 0 0 0 0 0 0 0 0 0 0 0 0 0 0 0 0 0 0 0 0 0 0 0 0 0 0 0 0 0 0 0 0 0 0 0 0 0 0 0 0 0 0 0 0 0 0 0 0
0 0 0 0 0 0 0 0 0 0 0 0 0 0 0 0 0 0 0 0 0 0 0 0 0 0 0 0 0 0 0 0 0 0 0 0 0 0 0 0 0 0 0 0 0 0 0 0 0 0 0 0 0 0
0 0 0 0 0 0 0 0 0 0 0 0 0 0 0 0 0 0 0 0 0 0 0 0 0 0 0 0 0 0 0 0 -0 -0 0 0 0 0 0 0 -0 -0 -0 -0 0 0 0 0 0 0 0 0 0 0
0 0 0 0 0 0 0 0 0 0 0 0 0 0 0 0 0 0 0 0 0 0 0 0 0 0 0 0 0 0 0 0 0 0 0 -0 0 0 0 0 0 0 0 0 -0 0 0 0 0 0 0 0 0 0
0 0 0 0 0 0 0 0 0 0 0 0 0 0 0 0 0 0 0 0 0 0 0 0 0 0 0 0 0 0 0 0 0 0 0 0 0 0 0 0 0 0 0 0 0 0 0 0 0 0 0 0 0 0
Wind_Speed_500mb
74 72 70 59 53 60 48 45 42 38 33 30 27 24 24 29 28 21 21 17 12 11 34 16 13 16 17 14 7 8 10 3 4 3 3 4 5 6 7 9 9 5 4 6 7 9 10 8 5 9 28 54 53 62
74 75 72 63 55 57 64 50 47 34 32 30 25 23 24 28 23 25 19 16 17 20 30 56 41 31 35 33 17 9 5 4 3 3 1 5 4 6 7 7 4 5 5 8 10 10 19 31 35 40 48 54 60 57
69 76 75 67 60 61 68 56 53 33 30 28 25 21 25 27 20 23 24 17 20 19 27 15 4 7 15 18 22 12 8 8 4 6 2 2 9 4 5 7 9 8 9 11 16 12 21 42 48 51 51 53 61 64
59 63 71 76 59 66 68 65 55 38 37 26 29 22 27 26 19 23 23 21 13 10 9 13 16 11 12 8 15 25 29 4 7 5 6 5 5 9 5 11 15 12 12 13 23 33 30 35 41 56 60 59 60 62
59 61 58 72 68 69 69 59 58 60 50 30 28 26 31 26 18 25 26 19 16 10 8 22 26 8 6 14 23 23 34 34 18 7 8 5 7 6 7 7 12 5 8 6 9 44 38 48 60 59 49 64 64 69
63 58 56 57 76 67 63 60 59 57 47 33 27 30 34 21 16 18 5 10 11 18 9 8 11 8 11 21 13 17 25 24 17 11 11 10 11 9 5 6 4 18 36 59 32 46 56 55 44 41 59 69 78 82
66 62 54 53 72 67 64 56 62 55 45 36 32 32 34 17 17 12 7 6 13 4 5 11 10 7 17 13 6 2 19 13 15 10 10 10 10 17 3 5 37 60 66 70 57 37 36 36 44 59 68 83 78 59
60 54 51 54 64 69 59 61 59 43 37 31 31 33 29 14 20 19 16 25 14 9 6 6 8 10 14 8 3 4 9 17 20 10 9 6 2 3 4 24 64 61 62 48 51 53 44 37 49 61 80 81 62 56
57 52 47 49 52 64 53 56 46 36 38 26 28 25 7 11 11 12 12 8 13 9 5 4 5 6 15 7 7 5 5 5 10 5 4 2 1 5 17 40 59 63 44 55 55 46 41 43 51 63 78 60 53 56
56 51 44 44 43 59 49 54 35 32 34 25 22 9 9 8 21 17 7 9 16 10 10 7 6 6 6 8 5 6 3 3 4 2 10 2 4 25 40 53 48 52 54 56 53 49 48 42 48 69 68 60 52 49
49 45 42 39 44 54 47 42 32 38 28 22 15 10 11 25 20 7 6 7 10 6 11 11 14 8 5 3 6 5 4 4 4 3 3 2 6 35 70 76 68 61 59 59 58 42 45 41 57 66 63 56 46 43
43 41 38 38 51 46 34 30 42 38 18 21 15 18 17 10 5 6 7 5 8 6 10 9 10 13 5 7 7 6 5 4 2 12 3 3 13 58 71 77 71 60 58 59 54 46 39 44 54 62 57 60 53 46
41 39 38 41 54 36 30 43 38 34 27 29 10 11 10 9 8 10 13 7 6 10 14 11 4 5 5 6 8 3 4 5 12 5 4 4 39 60 67 69 69 56 59 56 56 46 44 58 57 59 55 51 48 50
38 41 37 51 47 32 43 40 33 37 25 11 14 11 9 9 10 9 7 7 7 8 9 7 3 3 1 4 4 5 6 4 4 5 6 14 52 66 68 66 60 60 61 60 50 44 47 57 55 63 58 57 58 56
40 39 40 53 44 39 42 38 31 52 13 9 9 9 13 11 3 9 12 12 8 3 4 7 7 2 3 2 4 3 2 6 4 5 10 40 57 61 64 64 58 59 58 51 45 43 48 58 60 76 74 65 57 57
38 41 63 60 41 47 40 36 52 25 6 7 9 6 5 9 7 11 13 9 7 8 10 6 4 4 4 2 3 4 3 2 3 8 27 40 52 60 63 58 53 53 45 40 42 42 46 64 56 58 80 75 72 68
65 56 69 54 46 41 37 52 26 12 10 8 9 16 8 5 12 12 15 12 6 9 3 4 5 3 5 4 4 1 3 2 11 18 26 35 46 52 52 52 45 50 43 38 37 42 49 52 62 76 81 81 78 74
50 61 64 59 54 53 45 17 12 11 12 14 7 14 20 8 17 15 12 10 8 9 8 4 10 5 4 6 6 5 2 7 10 17 26 32 38 42 45 49 48 45 41 36 35 37 46 53 57 62 75 74 77 80
63 58 60 57 59 33 13 16 10 7 15 6 11 16 15 15 18 18 12 12 15 15 22 6 5 5 6 6 10 5 3 7 13 20 26 27 30 36 42 48 51 46 41 35 35 38 38 42 46 56 65 74 64 75
42 42 54 57 52 11 10 10 12 6 9 10 15 18 17 15 23 21 21 20 20 10 5 4 4 10 13 16 11 7 3 10 13 16 23 27 30 33 37 42 47 50 47 41 37 37 37 41 44 50 54 60 66 67
56 60 60 44 23 11 9 10 10 8 8 9 20 21 12 23 14 11 11 14 5 4 6 7 18 22 19 16 13 8 7 12 10 12 19 28 29 29 31 35 38 42 47 50 46 41 38 39 40 40 41 49 53 54
70 68 48 18 7 6 4 12 6 8 7 11 21 12 13 9 10 10 16 5 5 6 13 21 24 24 19 14 12 5 6 9 6 8 19 24 28 33 34 36 39 39 39 42 43 44 40 34 31 32 35 39 43 48
74 51 14 7 6 5 3 11 7 9 6 17 12 9 6 7 9 22 6 5 7 18 28 27 24 21 20 15 9 6 3 8 7 8 15 21 21 27 32 31 35 37 40 37 37 37 37 30 28 28 28 31 35 42
49 10 6 7 6 6 7 8 8 7 8 8 9 8 8 10 18 5 5 9 16 33 31 29 25 22 17 15 10 5 6 8 3 7 16 22 22 27 33 33 33 39 36 35 37 37 33 35 30 29 29 30 29 32
11 7 9 7 9 7 7 9 6 5 7 8 8 6 8 11 6 7 7 14 33 33 33 30 27 22 20 17 10 5 9 7 6 7 15 21 24 26 31 34 35 41 42 42 42 43 41 33 29 32 29 28 28 21
5 9 11 15 8 7 8 10 12 9 6 7 5 13 10 6 8 7 8 28 38 44 48 43 34 28 21 15 12 8 10 9 6 6 12 20 27 32 35 37 40 41 43 43 45 45 41 43 35 28 28 25 23 17
5 6 8 9 7 6 6 5 4 7 9 8 10 9 8 8 10 6 10 28 42 48 40 39 32 27 24 18 11 9 11 10 7 6 10 17 21 28 30 34 37 40 43 42 41 41 42 42 42 37 28 23 21 12
3 2 5 10 6 5 2 3 7 11 8 11 17 12 12 7 3 10 10 30 43 45 43 36 28 23 21 17 12 10 10 10 9 5 6 12 14 22 23 26 28 29 32 37 41 41 39 38 37 37 34 25 21 15
3 5 8 6 3 5 7 5 5 4 7 15 10 6 7 5 13 14 30 44 50 50 47 42 35 26 21 17 11 10 14 17 15 15 15 16 19 25 28 31 32 32 32 31 33 38 41 40 37 31 31 28 23 18
7 13 8 8 6 7 4 6 4 7 8 15 17 15 12 13 13 26 45 53 48 45 42 37 31 25 21 17 15 13 14 16 19 21 21 23 24 26 28 31 33 34 35 35 36 36 35 36 35 32 28 22 18 14
5 14 5 5 2 7 4 6 14 17 13 11 15 16 17 15 23 40 46 40 38 41 41 36 32 25 20 20 16 11 12 14 16 19 21 23 23 23 25 28 30 33 35 36 37 38 40 40 41 40 37 33 28 18
9 7 8 6 3 9 13 3 7 7 6 5 7 10 14 10 8 29 38 39 41 41 35 29 26 26 22 21 16 11 10 11 13 14 17 19 22 24 25 26 27 28 30 33 34 36 37 39 40 40 39 36 32 28
11 10 12 7 6 10 13 10 6 6 8 6 5 9 9 8 7 12 26 36 39 35 30 24 20 18 20 20 16 14 10 8 10 13 16 19 21 22 23 23 24 25 27 28 29 31 33 35 37 38 38 36 33 29
Wind_Direction_500mb
261 265 265 260 251 260 251 260 262 280 283 288 294 304 315 323 327 343 325 314 290 259 284 262 261 249 263 248 253 319 308 166 278 295 303 331 297 355 294 298 305 273 269 239 235 241 259 145 171 280 316 303 304 304
259 263 272 256 243 249 250 256 249 270 276 281 287 292 310 312 327 323 316 307 306 272 274 295 286 274 247 244 252 245 274 278 298 306 250 290 293 310 334 295 279 283 294 282 223 258 294 297 290 300 306 298 294 295
261 260 261 260 251 243 251 247 247 251 265 275 278 285 300 303 326 309 301 307 305 293 302 292 304 274 289 275 228 227 234 225 234 238 273 264 262 216 269 263 291 286 276 253 297 283 289 306 302 298 294 299 302 299
275 268 263 259 255 245 250 245 246 236 236 261 271 274 285 297 312 304 291 292 276 279 287 277 292 296 266 252 247 249 236 241 250 241 269 250 261 208 257 287 286 272 301 266 273 284 315 290 301 301 306 310 310 303
282 273 267 261 253 246 247 247 250 242 242 236 262 269 277 285 317 303 294 276 229 228 288 290 299 206 244 282 287 262 239 232 252 284 251 242 236 237 231 264 260 245 296 286 280 303 301 293 306 317 325 319 313 308
273 267 265 264 249 247 256 252 248 243 243 224 256 266 275 282 309 299 287 214 205 202 287 294 299 258 308 327 299 266 229 203 207 214 245 243 230 196 250 252 309 334 322 309 292 289 282 289 313 323 324 320 316 310
268 266 261 256 250 245 253 241 249 248 245 226 256 263 276 269 279 247 230 206 200 164 257 291 288 288 319 329 320 210 185 187 192 221 237 245 231 203 256 266 343 324 316 314 316 328 317 326 324 329 327 323 319 308
275 261 254 251 256 242 251 243 244 247 244 231 256 268 265 276 272 271 237 228 228 226 242 277 284 301 350 305 323 218 179 199 208 240 232 236 86 221 279 329 325 320 321 321 327 327 319 318 324 325 327 323 322 321
274 257 248 247 252 241 239 241 245 240 217 238 261 260 257 241 218 170 171 196 211 208 266 256 292 303 339 314 297 285 236 207 192 241 206 151 68 47 329 321 317 320 315 308 318 323 323 324 322 322 323 326 329 328
264 247 240 240 242 234 235 233 249 213 207 249 242 174 205 188 147 161 153 171 187 211 221 245 250 271 307 327 302 301 274 268 252 228 115 177 127 0 339 331 326 326 330 329 328 323 326 317 322 325 331 335 334 332
252 237 233 231 237 228 229 237 206 203 216 221 170 175 171 151 157 177 192 220 178 220 214 233 227 266 271 279 298 282 307 271 261 85 229 120 14 348 340 340 351 352 346 343 344 342 334 332 331 330 338 345 346 350
238 228 222 227 229 217 227 210 196 197 205 166 138 141 148 172 171 201 200 208 194 230 200 209 229 219 259 238 256 240 272 249 250 321 56 33 360 340 339 340 347 357 353 348 357 355 351 348 343 344 351 357 1 1
226 211 208 219 214 205 205 191 201 197 182 138 171 161 168 162 200 211 187 184 204 197 198 202 205 203 212 240 271 297 282 14 305 17 41 54 339 333 337 342 348 357 357 1 356 5 2 356 353 359 360 6 13 9
206 199 197 206 195 200 187 193 188 171 141 166 174 176 207 183 226 199 191 158 164 164 174 211 172 186 170 220 338 296 7 330 50 36 5 343 335 333 338 340 345 350 360 359 355 5 9 3 3 14 16 13 13 15
190 192 199 192 189 182 184 191 187 154 159 190 186 207 204 217 189 176 161 128 134 145 170 126 108 116 55 36 21 319 41 64 44 11 322 328 330 335 338 345 357 355 1 357 360 5 16 16 11 19 20 18 23 24
169 183 191 181 178 174 188 178 164 150 193 212 225 224 197 170 152 161 155 135 150 140 118 93 108 100 64 47 65 74 113 107 354 324 322 331 334 342 345 349 358 360 6 1 5 9 18 23 20 18 25 24 25 26
181 172 175 174 168 173 173 158 143 180 213 218 231 216 205 164 156 149 155 154 152 149 142 138 114 99 127 92 106 103 104 48 337 328 333 339 340 345 350 358 1 8 12 10 12 16 19 23 23 24 27 28 26 28
170 175 167 167 165 152 141 145 153 200 229 222 214 193 191 158 148 146 154 164 157 143 143 134 131 147 128 146 156 137 94 345 348 339 337 337 345 359 5 5 10 14 16 19 21 19 19 23 25 22 22 30 31 32
167 169 170 168 165 133 134 172 189 228 215 199 205 172 164 146 137 136 129 149 154 136 127 108 114 143 157 130 138 131 54 6 332 339 349 342 350 1 9 15 18 20 25 21 23 27 21 18 22 24 22 25 30 34
163 164 166 167 160 115 127 167 198 210 198 192 165 155 138 140 137 140 132 132 134 128 95 96 140 145 141 134 136 133 62 357 341 347 347 352 353 358 4 11 14 15 19 19 21 20 24 24 22 21 21 25 27 30
152 161 159 144 123 115 146 152 186 208 173 160 155 139 122 138 130 135 133 142 104 97 129 142 144 141 141 140 117 90 46 357 9 357 350 347 351 356 355 358 6 12 17 19 15 19 24 20 14 16 18 19 24 28
150 158 148 120 92 102 171 183 184 171 156 150 146 132 133 149 144 151 147 103 126 150 153 153 156 150 146 134 118 83 54 1 3 352 7 4 6 6 4 0 2 5 8 13 14 15 17 18 16 18 16 18 21 21
155 148 101 94 111 139 180 170 176 179 153 164 145 118 131 131 146 149 103 137 155 157 153 150 148 145 136 124 138 112 57 16 70 19 1 7 6 9 12 8 8 5 9 12 12 10 15 15 15 14 18 16 19 22
149 107 113 136 157 188 172 180 180 149 119 164 171 126 139 132 153 186 157 175 166 162 159 156 159 153 145 140 138 115 29 16 82 26 17 17 19 19 21 19 15 14 13 10 12 12 12 18 22 18 19 21 27 24
119 166 158 191 199 179 175 164 169 178 162 156 137 135 151 152 157 186 193 181 172 174 172 169 165 165 155 144 136 89 29 65 110 43 25 27 25 24 23 23 22 18 13 14 14 13 14 7 9 14 15 16 24 40
125 176 194 187 160 193 180 172 188 174 157 149 130 126 152 153 175 216 200 183 179 178 178 174 165 156 152 150 131 97 55 62 89 50 33 30 26 22 17 12 11 11 13 13 7 7 10 12 7 356 0 11 15 27
129 206 207 200 179 183 207 207 160 178 176 155 151 156 162 179 218 174 185 178 178 179 176 172 170 165 159 149 125 78 49 43 64 86 58 28 16 16 15 14 10 4 3 4 6 5 4 6 8 6 357 359 3 4
221 178 167 174 200 220 266 196 180 180 184 147 153 180 183 195 148 161 160 170 170 161 158 159 163 168 159 148 122 75 50 50 53 63 12 12 14 14 16 18 15 10 7 2 0 2 1 359 360 4 2 354 340 354
181 147 152 188 233 233 228 234 220 143 143 168 154 131 124 103 142 147 152 156 163 163 163 163 159 166 161 148 124 86 74 78 90 86 69 45 28 18 19 17 14 12 11 12 7 360 358 356 354 349 355 353 345 324
180 176 177 211 216 216 220 205 180 180 172 149 132 116 104 116 139 151 156 162 166 170 170 168 165 169 165 160 140 112 88 75 67 61 54 40 28 19 16 14 12 12 11 9 6 5 2 0 359 359 358 355 344 326
172 187 198 246 287 9 275 155 142 138 124 95 107 114 117 115 128 153 163 171 173 168 166 166 164 165 165 161 151 126 105 83 63 48 39 31 24 19 16 14 12 10 8 8 7 6 4 2 0 360 359 356 353 336
194 213 170 177 158 155 145 132 110 98 107 93 90 108 110 101 105 165 174 175 176 175 179 177 173 170 165 162 156 138 114 93 64 42 29 23 19 16 13 10 9 9 9 7 6 6 6 4 3 1 359 357 355 353
186 205 217 226 155 188 176 153 117 93 82 80 83 102 83 92 103 164 178 182 187 192 185 177 170 170 169 168 160 145 122 80 41 25 19 16 13 10 7 7 8 8 7 7 7 7 7 9 9 5 4 3 5 3
Wind_Speed_850mb
74 72 70 59 53 60 48 45 42 38 33 30 27 24 24 29 28 21 21 17 12 11 34 16 13 16 17 14 7 8 10 3 4 3 3 4 5 6 7 9 9 5 4 6 7 9 10 8 5 9 28 54 53 62
74 75 72 63 55 57 64 50 47 34 32 30 25 23 24 28 23 25 19 16 17 20 30 56 41 31 35 33 17 9 5 4 3 3 1 5 4 6 7 7 4 5 5 8 10 10 19 31 35 40 48 54 60 57
69 76 75 67 60 61 68 56 53 33 30 28 25 21 25 27 20 23 24 17 20 19 27 15 4 7 15 18 22 12 8 8 4 6 2 2 9 4 5 7 9 8 9 11 16 12 21 42 48 51 51 53 61 64
59 63 71 76 59 66 68 65 55 38 37 26 29 22 27 26 19 23 23 21 13 10 9 13 16 11 12 8 15 25 29 4 7 5 6 5 5 9 5 11 15 12 12 13 23 33 30 35 41 56 60 59 60 62
59 61 58 72 68 69 69 59 58 60 50 30 28 26 31 26 18 25 26 19 16 10 8 22 26 8 6 14 23 23 34 34 18 7 8 5 7 6 7 7 12 5 8 6 9 44 38 48 60 59 49 64 64 69
63 58 56 57 76 67 63 60 59 57 47 33 27 30 34 21 16 18 5 10 11 18 9 8 11 8 11 21 13 17 25 24 17 11 11 10 11 9 5 6 4 18 36 59 32 46 56 55 44 41 59 69 78 82
66 62 54 53 72 67 64 56 62 55 45 36 32 32 34 17 17 12 7 6 13 4 5 11 10 7 17 13 6 2 19 13 15 10 10 10 10 17 3 5 37 60 66 70 57 37 36 36 44 59 68 83 78 59
60 54 51 54 64 69 59 61 59 43 37 31 31 33 29 14 20 19 16 25 14 9 6 6 8 10 14 8 3 4 9 17 20 10 9 6 2 3 4 24 64 61 62 48 51 53 44 37 49 61 80 81 62 56
57 52 47 49 52 64 53 56 46 36 38 26 28 25 7 11 11 12 12 8 13 9 5 4 5 6 15 7 7 5 5 5 10 5 4 2 1 5 17 40 59 63 44 55 55 46 41 43 51 63 78 60 53 56
56 51 44 44 43 59 49 54 35 32 34 25 22 9 9 8 21 17 7 9 16 10 10 7 6 6 6 8 5 6 3 3 4 2 10 2 4 25 40 53 48 52 54 56 53 49 48 42 48 69 68 60 52 49
49 45 42 39 44 54 47 42 32 38 28 22 15 10 11 25 20 7 6 7 10 6 11 11 14 8 5 3 6 5 4 4 4 3 3 2 6 35 70 76 68 61 59 59 58 42 45 41 57 66 63 56 46 43
43 41 38 38 51 46 34 30 42 38 18 21 15 18 17 10 5 6 7 5 8 6 10 9 10 13 5 7 7 6 5 4 2 12 3 3 13 58 71 77 71 60 58 59 54 46 39 44 54 62 57 60 53 46
41 39 38 41 54 36 30 43 38 34 27 29 10 11 10 9 8 10 13 7 6 10 14 11 4 5 5 6 8 3 4 5 12 5 4 4 39 60 67 69 69 56 59 56 56 46 44 58 57 59 55 51 48 50
38 41 37 51 47 32 43 40 33 37 25 11 14 11 9 9 10 9 7 7 7 8 9 7 3 3 1 4 4 5 6 4 4 5 6 14 52 66 68 66 60 60 61 60 50 44 47 57 55 63 58 57 58 56
40 39 40 53 44 39 42 38 31 52 13 9 9 9 13 11 3 9 12 12 8 3 4 7 7 2 3 2 4 3 2 6 4 5 10 40 57 61 64 64 58 59 58 51 45 43 48 58 60 76 74 65 57 57
38 41 63 60 41 47 40 36 52 25 6 7 9 6 5 9 7 11 13 9 7 8 10 6 4 4 4 2 3 4 3 2 3 8 27 40 52 60 63 58 53 53 45 40 42 42 46 64 56 58 80 75 72 68
65 56 69 54 46 41 37 52 26 12 10 8 9 16 8 5 12 12 15 12 6 9 3 4 5 3 5 4 4 1 3 2 11 18 26 35 46 52 52 52 45 50 43 38 37 42 49 52 62 76 81 81 78 74
50 61 64 59 54 53 45 17 12 11 12 14 7 14 20 8 17 15 12 10 8 9 8 4 10 5 4 6 6 5 2 7 10 17 26 32 38 42 45 49 48 45 41 36 35 37 46 53 57 62 75 74 77 80
63 58 60 57 59 33 13 16 10 7 15 6 11 16 15 15 18 18 12 12 15 15 22 6 5 5 6 6 10 5 3 7 13 20 26 27 30 36 42 48 51 46 41 35 35 38 38 42 46 56 65 74 64 75
42 42 54 57 52 11 10 10 12 6 9 10 15 18 17 15 23 21 21 20 20 10 5 4 4 10 13 16 11 7 3 10 13 16 23 27 30 33 37 42 47 50 47 41 37 37 37 41 44 50 54 60 66 67
56 60 60 44 23 11 9 10 10 8 8 9 20 21 12 23 14 11 11 14 5 4 6 7 18 22 19 16 13 8 7 12 10 12 19 28 29 29 31 35 38 42 47 50 46 41 38 39 40 40 41 49 53 54
70 68 48 18 7 6 4 12 6 8 7 11 21 12 13 9 10 10 16 5 5 6 13 21 24 24 19 14 12 5 6 9 6 8 19 24 28 33 34 36 39 39 39 42 43 44 40 34 31 32 35 39 43 48
74 51 14 7 6 5 3 11 7 9 6 17 12 9 6 7 9 22 6 5 7 18 28 27 24 21 20 15 9 6 3 8 7 8 15 21 21 27 32 31 35 37 40 37 37 37 37 30 28 28 28 31 35 42
49 10 6 7 6 6 7 8 8 7 8 8 9 8 8 10 18 5 5 9 16 33 31 29 25 22 17 15 10 5 6 8 3 7 16 22 22 27 33 33 33 39 36 35 37 37 33 35 30 29 29 30 29 32
11 7 9 7 9 7 7 9 6 5 7 8 8 6 8 11 6 7 7 14 33 33 33 30 27 22 20 17 10 5 9 7 6 7 15 21 24 26 31 34 35 41 42 42 42 43 41 33 29 32 29 28 28 21
5 9 11 15 8 7 8 10 12 9 6 7 5 13 10 6 8 7 8 28 38 44 48 43 34 28 21 15 12 8 10 9 6 6 12 20 27 32 35 37 40 41 43 43 45 45 41 43 35 28 28 25 23 17
5 6 8 9 7 6 6 5 4 7 9 8 10 9 8 8 10 6 10 28 42 48 40 39 32 27 24 18 11 9 11 10 7 6 10 17 21 28 30 34 37 40 43 42 41 41 42 42 42 37 28 23 21 12
3 2 5 10 6 5 2 3 7 11 8 11 17 12 12 7 3 10 10 30 43 45 43 36 28 23 21 17 12 10 10 10 9 5 6 12 14 22 23 26 28 29 32 37 41 41 39 38 37 37 34 25 21 15
3 5 8 6 3 5 7 5 5 4 7 15 10 6 7 5 13 14 30 44 50 50 47 42 35 26 21 17 11 10 14 17 15 15 15 16 19 25 28 31 32 32 32 31 33 38 41 40 37 31 31 28 23 18
7 13 8 8 6 7 4 6 4 7 8 15 17 15 12 13 13 26 45 53 48 45 42 37 31 25 21 17 15 13 14 16 19 21 21 23 24 26 28 31 33 34 35 35 36 36 35 36 35 32 28 22 18 14
5 14 5 5 2 7 4 6 14 17 13 11 15 16 17 15 23 40 46 40 38 41 41 36 32 25 20 20 16 11 12 14 16 19 21 23 23 23 25 28 30 33 35 36 37 38 40 40 41 40 37 33 28 18
9 7 8 6 3 9 13 3 7 7 6 5 7 10 14 10 8 29 38 39 41 41 35 29 26 26 22 21 16 11 10 11 13 14 17 19 22 24 25 26 27 28 30 33 34 36 37 39 40 40 39 36 32 28
11 10 12 7 6 10 13 10 6 6 8 6 5 9 9 8 7 12 26 36 39 35 30 24 20 18 20 20 16 14 10 8 10 13 16 19 21 22 23 23 24 25 27 28 29 31 33 35 37 38 38 36 33 29
Wind_Direction_850mb
261 265 265 260 251 260 251 260 262 280 283 288 294 304 315 323 327 343 325 314 290 259 284 262 261 249 263 248 253 319 308 166 278 295 303 331 297 355 294 298 305 273 269 239 235 241 259 145 171 280 316 303 304 304
259 263 272 256 243 249 250 256 249 270 276 281 287 292 310 312 327 323 316 307 306 272 274 295 286 274 247 244 252 245 274 278 298 306 250 290 293 310 334 295 279 283 294 282 223 258 294 297 290 300 306 298 294 295
261 260 261 260 251 243 251 247 247 251 265 275 278 285 300 303 326 309 301 307 305 293 302 292 304 274 289 275 228 227 234 225 234 238 273 264 262 216 269 263 291 286 276 253 297 283 289 306 302 298 294 299 302 299
275 268 263 259 255 245 250 245 246 236 236 261 271 274 285 297 312 304 291 292 276 279 287 277 292 296 266 252 247 249 236 241 250 241 269 250 261 208 257 287 286 272 301 266 273 284 315 290 301 301 306 310 310 303
282 273 267 261 253 246 247 247 250 242 242 236 262 269 277 285 317 303 294 276 229 228 288 290 299 206 244 282 287 262 239 232 252 284 251 242 236 237 231 264 260 245 296 286 280 303 301 293 306 317 325 319 313 308
273 267 265 264 249 247 256 252 248 243 243 224 256 266 275 282 309 299 287 214 205 202 287 294 299 258 308 327 299 266 229 203 207 214 245 243 230 196 250 252 309 334 322 309 292 289 282 289 313 323 324 320 316 310
268 266 261 256 250 245 253 241 249 248 245 226 256 263 276 269 279 247 230 206 200 164 257 291 288 288 319 329 320 210 185 187 192 221 237 245 231 203 256 266 343 324 316 314 316 328 317 326 324 329 327 323 319 308
275 261 254 251 256 242 251 243 244 247 244 231 256 268 265 276 272 271 237 228 228 226 242 277 284 301 350 305 323 218 179 199 208 240 232 236 86 221 279 329 325 320 321 321 327 327 319 318 324 325 327 323 322 321
274 257 248 247 252 241 239 241 245 240 217 238 261 260 257 241 218 170 171 196 211 208 266 256 292 303 339 314 297 285 236 207 192 241 206 151 68 47 329 321 317 320 315 308 318 323 323 324 322 322 323 326 329 328
264 247 240 240 242 234 235 233 249 213 207 249 242 174 205 188 147 161 153 171 187 211 221 245 250 271 307 327 302 301 274 268 252 228 115 177 127 0 339 331 326 326 330 329 328 323 326 317 322 325 331 335 334 332
252 237 233 231 237 228 229 237 206 203 216 221 170 175 171 151 157 177 192 220 178 220 214 233 227 266 271 279 298 282 307 271 261 85 229 120 14 348 340 340 351 352 346 343 344 342 334 332 331 330 338 345 346 350
238 228 222 227 229 217 227 210 196 197 205 166 138 141 148 172 171 201 200 208 194 230 200 209 229 219 259 238 256 240 272 249 250 321 56 33 360 340 339 340 347 357 353 348 357 355 351 348 343 344 351 357 1 1
226 211 208 219 214 205 205 191 201 197 182 138 171 161 168 162 200 211 187 184 204 197 198 202 205 203 212 240 271 297 282 14 305 17 41 54 339 333 337 342 348 357 357 1 356 5 2 356 353 359 360 6 13 9
206 199 197 206 195 200 187 193 188 171 141 166 174 176 207 183 226 199 191 158 164 164 174 211 172 186 170 220 338 296 7 330 50 36 5 343 335 333 338 340 345 350 360 359 355 5 9 3 3 14 16 13 13 15
190 192 199 192 189 182 184 191 187 154 159 190 186 207 204 217 189 176 161 128 134 145 170 126 108 116 55 36 21 319 41 64 44 11 322 328 330 335 338 345 357 355 1 357 360 5 16 16 11 19 20 18 23 24
169 183 191 181 178 174 188 178 164 150 193 212 225 224 197 170 152 161 155 135 150 140 118 93 108 100 64 47 65 74 113 107 354 324 322 331 334 342 345 349 358 360 6 1 5 9 18 23 20 18 25 24 25 26
181 172 175 174 168 173 173 158 143 180 213 218 231 216 205 164 156 149 155 154 152 149 142 138 114 99 127 92 106 103 104 48 337 328 333 339 340 345 350 358 1 8 12 10 12 16 19 23 23 24 27 28 26 28
170 175 167 167 165 152 141 145 153 200 229 222 214 193 191 158 148 146 154 164 157 143 143 134 131 147 128 146 156 137 94 345 348 339 337 337 345 359 5 5 10 14 16 19 21 19 19 23 25 22 22 30 31 32
167 169 170 168 165 133 134 172 189 228 215 199 205 172 164 146 137 136 129 149 154 136 127 108 114 143 157 130 138 131 54 6 332 339 349 342 350 1 9 15 18 20 25 21 23 27 21 18 22 24 22 25 30 34
163 164 166 167 160 115 127 167 198 210 198 192 165 155 138 140 137 140 132 132 134 128 95 96 140 145 141 134 136 133 62 357 341 347 347 352 353 358 4 11 14 15 19 19 21 20 24 24 22 21 21 25 27 30
152 161 159 144 123 115 146 152 186 208 173 160 155 139 122 138 130 135 133 142 104 97 129 142 144 141 141 140 117 90 46 357 9 357 350 347 351 356 355 358 6 12 17 19 15 19 24 20 14 16 18 19 24 28
150 158 148 120 92 102 171 183 184 171 156 150 146 132 133 149 144 151 147 103 126 150 153 153 156 150 146 134 118 83 54 1 3 352 7 4 6 6 4 0 2 5 8 13 14 15 17 18 16 18 16 18 21 21
155 148 101 94 111 139 180 170 176 179 153 164 145 118 131 131 146 149 103 137 155 157 153 150 148 145 136 124 138 112 57 16 70 19 1 7 6 9 12 8 8 5 9 12 12 10 15 15 15 14 18 16 19 22
149 107 113 136 157 188 172 180 180 149 119 164 171 126 139 132 153 186 157 175 166 162 159 156 159 153 145 140 138 115 29 16 82 26 17 17 19 19 21 19 15 14 13 10 12 12 12 18 22 18 19 21 27 24
119 166 158 191 199 179 175 164 169 178 162 156 137 135 151 152 157 186 193 181 172 174 172 169 165 165 155 144 136 89 29 65 110 43 25 27 25 24 23 23 22 18 13 14 14 13 14 7 9 14 15 16 24 40
125 176 194 187 160 193 180 172 188 174 157 149 130 126 152 153 175 216 200 183 179 178 178 174 165 156 152 150 131 97 55 62 89 50 33 30 26 22 17 12 11 11 13 13 7 7 10 12 7 356 0 11 15 27
129 206 207 200 179 183 207 207 160 178 176 155 151 156 162 179 218 174 185 178 178 179 176 172 170 165 159 149 125 78 49 43 64 86 58 28 16 16 15 14 10 4 3 4 6 5 4 6 8 6 357 359 3 4
221 178 167 174 200 220 266 196 180 180 184 147 153 180 183 195 148 161 160 170 170 161 158 159 163 168 159 148 122 75 50 50 53 63 12 12 14 14 16 18 15 10 7 2 0 2 1 359 360 4 2 354 340 354
181 147 152 188 233 233 228 234 220 143 143 168 154 131 124 103 142 147 152 156 163 163 163 163 159 166 161 148 124 86 74 78 90 86 69 45 28 18 19 17 14 12 11 12 7 360 358 356 354 349 355 353 345 324
180 176 177 211 216 216 220 205 180 180 172 149 132 116 104 116 139 151 156 162 166 170 170 168 165 169 165 160 140 112 88 75 67 61 54 40 28 19 16 14 12 12 11 9 6 5 2 0 359 359 358 355 344 326
172 187 198 246 287 9 275 155 142 138 124 95 107 114 117 115 128 153 163 171 173 168 166 166 164 165 165 161 151 126 105 83 63 48 39 31 24 19 16 14 12 10 8 8 7 6 4 2 0 360 359 356 353 336
194 213 170 177 158 155 145 132 110 98 107 93 90 108 110 101 105 165 174 175 176 175 179 177 173 170 165 162 156 138 114 93 64 42 29 23 19 16 13 10 9 9 9 7 6 6 6 4 3 1 359 357 355 353
186 205 217 226 155 188 176 153 117 93 82 80 83 102 83 92 103 164 178 182 187 192 185 177 170 170 169 168 160 145 122 80 41 25 19 16 13 10 7 7 8 8 7 7 7 7 7 9 9 5 4 3 5 3